星链-37922(STARLINK-37922)

导读

STARLINK-37922(NORAD编号69971)是美国太空探索技术公司(SpaceX)星链星座的组网卫星,属于全球规模最大的低轨互联网通信卫星系统组成部分。 星链系统旨在通过近地轨道卫星群为全球偏远地区、海洋、极地等传统通信基建难以覆盖的场景提供高速低延迟网络服务,截至2025年9月已部署约8400颗卫星,覆盖134个国家,用户超600万。该类卫星搭载激光星间链路,支持动态路由通信,目前星链第三代卫星已启动在轨测试,单星下行容量可达1Tbps,将进一步提升网络服务能力。 目前公开可查询的卫星轨道、发射日期等具体参数暂未对外披露,相关运行信息由SpaceX统一调度管理。

基本信息
目录编号:
69971
目录名称:
STARLINK-37922
国际标识:
2026-157AE
轨道中心:
EARTH
卫星名称:
星链-37922
卫星全名:
星链-37922(STARLINK-37922)
卫星状态:
在轨 (已飞行58 天)
发射日期:
2026-07-09 UTC
国别 :
美国 (US)
星等 :
--
轨道信息
数据来源 国际轨道数据 AOE轨道数据
星历时间 2026-09-05T04:16:42+0800
10小时前
查看轨道信息
2026-09-01T03:00:00+0800
4天前
查看轨道信息
半长轴 6840.801km 6840.818km
偏心率 0.0001199 0.000066
轨道倾角 53.161° 53.162°
近地点辐角 44.505° 23.286°
升交点赤经 46.593° 65.542°
平近点角 315.605° 254.868°
近地点 461.843km 462.229km
远地点 463.485km 463.133km
周期 93.847分钟 93.847分钟
每日圈数 15.344135 15.344075
详细信息
固有亮度:
5
最大亮度:
2.5
卫星平台:
Starlink V1.0
覆盖范围:
全球
运营商:
太空探索技术公司
运营商所在国:
美国
制造商(研发单位):
太空探索技术公司
制造商所在国:
美国
使用方式:
暂无
卫星简介
Starlink 计划是 SpaceX 推出的全球卫星互联网项目,通过发射低轨道卫星,为全球尤其是偏远地区提供高速、低延迟的互联网服务。自 2019 年起,Starlink 已部署数千颗卫星,旨在缩小全球数字鸿沟,推动互联网普及。该项目还为军事、航空等行业提供通信支持,带来广泛经济效益。
2D轨道图
3D轨道图
轨道高度分析图
轨道倾角分析图
轨道综合分析图
查看轨道综合分析图
交会数据列表
事件ID 空间交会对象 最接近时刻(TCA) 交会距离 交会风险概率(CRP) 交会风险指数(CRI) 操作
CDM_260907-080206-152906-997121
2026-09-07T
08:02:39+0000
0.349 km
远距离
1.594496E-4 高风险 0.79
CDM_260907-203805-767006-997121
2026-09-07T
20:38:15+0000
0.934 km
远距离
1.555392E-5 中风险 0.59
CDM_260907-071506-152906-997121
2026-09-07T
07:15:45+0000
1.170 km
极远距离
4.267735E-6 低风险 0.48
CDM_260907-190405-767006-997121
2026-09-07T
19:04:28+0000
1.446 km
极远距离
3.549276E-6 低风险 0.46
CDM_260906-083106-435106-997121
2026-09-06T
08:31:29+0000
1.853 km
极远距离
2.812101E-6 低风险 0.44
CDM_260907-054106-152906-997121
2026-09-07T
05:41:57+0000
1.383 km
极远距离
2.477926E-6 低风险 0.43
CDM_260906-010805-113206-997123
2026-09-06T
01:08:27+0000
2.814 km
极远距离
1.295959E-6 低风险 0.37
CDM_260907-093606-152906-997121
2026-09-07T
09:36:26+0000
2.414 km
极远距离
6.364025E-7 极低风险 0.31
CDM_260907-062806-152906-997121
2026-09-07T
06:28:51+0000
2.733 km
极远距离
5.326447E-7 极低风险 0.3